SCP
0 0 0 0 0 0 0 0 0 0 0 0 0 0 0 0 0 0 0 0 0 0 0 0 0 0 0 0 0 0 0 0 0 0 0 0 0 0 0 0 0 0 0
0 0 0 0 0 0 0 0 0 0 0 0 0 0 0 0 0 0 0 0 0 0 0 0 0 0 0 0 0 0 0 0 0 0 0 0 0 0 0 0 0 0 0
0 0 0 0 0 0 0 0 0 0 0 0 0 0 0 0 0 0 0 0 0 0 0 0 0 0 0 0 0 0 0 0 0 0 0 0 0 0 0 0 0 0 0
0 0 0 1 1 0 0 0 0 0 0 0 0 0 0 0 0 0 0 0 0 0 0 0 0 0 0 0 0 0 0 0 0 0 0 0 0 0 0 0 0 0 0
0 0 1 1 1 0 0 0 0 0 0 0 0 0 0 0 0 0 0 0 0 0 0 0 0 0 0 0 0 0 0 0 0 0 -0 -0 0 0 0 0 0 0 0
1 1 1 1 1 1 0 0 0 0 0 0 0 0 0 0 0 0 0 0 0 0 0 0 0 0 0 0 0 0 0 0 0 0 -0 -0 0 0 0 0 0 0 0
1 1 1 1 1 1 1 0 0 0 0 0 0 0 0 0 0 0 0 0 0 0 0 0 0 0 0 0 0 0 0 0 0 0 0 0 0 0 0 0 0 0 0
1 1 1 1 1 1 1 0 0 0 0 0 0 0 0 0 0 0 0 0 0 0 0 0 0 0 0 0 0 0 0 0 0 0 0 0 0 0 0 0 0 0 0
1 1 1 1 1 1 1 0 0 0 0 0 0 0 0 0 0 0 0 0 0 0 0 0 0 0 0 0 0 0 0 0 0 0 0 0 0 0 0 0 0 0 0
1 1 1 1 1 1 1 0 0 0 0 0 0 0 0 0 0 0 0 0 0 0 0 0 0 0 0 0 0 0 0 0 0 0 0 0 0 0 0 0 0 0 0
1 1 1 1 1 1 1 1 0 0 0 0 0 0 0 0 0 0 0 0 0 0 0 0 0 0 0 0 0 0 0 0 0 0 0 0 0 0 0 0 0 0 0
1 1 1 1 1 1 1 1 0 0 0 0 0 0 0 0 0 0 0 0 0 0 0 0 0 0 0 0 0 0 0 0 0 0 0 0 0 0 0 0 0 0 0
1 1 1 1 1 1 1 1 0 0 0 0 0 0 0 0 0 0 0 0 0 0 0 0 0 0 0 0 0 0 0 0 0 0 0 0 0 0 0 0 0 0 0
1 1 1 1 1 1 1 1 0 0 0 0 0 0 0 0 0 0 0 0 0 0 0 0 0 0 0 0 0 0 0 0 0 0 0 0 0 0 0 0 0 0 0
1 1 1 1 1 1 1 1 0 0 0 0 0 0 0 0 0 0 0 0 0 0 0 0 0 0 0 0 0 0 0 0 0 0 0 0 0 0 0 0 0 0 0
1 1 1 1 1 1 1 0 0 0 0 0 0 0 0 0 0 0 0 0 0 0 0 0 0 0 0 0 0 0 0 0 0 0 0 0 0 0 0 0 0 0 0
1 1 1 1 1 1 1 0 0 0 0 0 0 0 0 0 0 0 0 0 0 0 0 0 0 0 0 0 0 0 0 0 0 0 0 0 0 0 0 0 0 0 0
1 1 1 1 1 1 0 0 0 0 0 0 0 0 0 0 0 0 0 0 0 0 0 0 0 0 0 0 0 0 0 0 0 0 0 0 0 0 0 0 0 0 0
1 1 1 1 1 0 0 0 0 0 0 0 0 0 0 0 0 0 0 0 0 0 0 0 0 0 0 0 0 0 0 0 0 0 0 0 0 0 0 0 0 0 0
1 1 1 1 0 0 0 0 0 0 0 0 0 0 0 0 0 0 0 0 0 0 0 0 0 0 0 0 0 0 0 0 0 0 0 0 0 0 0 0 0 0 0
1 1 1 1 0 0 0 0 0 0 0 0 0 0 0 0 0 0 0 0 0 0 0 0 0 0 0 0 0 0 0 0 0 0 0 0 0 0 0 0 0 0 0
1 1 0 0 0 0 0 0 0 0 0 0 0 0 0 -0 0 0 0 0 0 0 0 0 0 0 0 0 0 0 0 0 0 0 0 0 0 0 0 0 0 0 0
0 0 0 0 0 0 0 0 0 0 0 0 0 0 0 0 0 0 0 0 0 0 0 0 0 0 0 0 0 0 0 0 0 0 0 0 0 0 0 0 0 0 0
0 0 0 0 0 0 0 0 0 0 0 0 0 0 0 0 0 0 0 0 0 0 0 0 0 0 0 0 0 0 0 0 0 0 0 0 0 0 0 0 0 0 0
0 0 0 0 0 0 0 0 0 0 0 0 0 0 0 0 0 0 0 0 0 0 0 0 0 0 0 0 0 0 0 0 0 0 0 0 0 0 0 0 0 0 0
0 0 0 0 0 0 0 0 0 0 0 0 0 0 0 0 0 0 0 0 0 0 0 0 0 0 0 0 0 0 0 0 0 0 0 0 0 0 0 0 0 0 0
Wind_Speed
8 10 18 18 18 18 18 18 18 18 18 18 17 17 17 16 15 14 14 13 13 13 13 13 13 13 13 13 13 14 14 13 14 14 15 15 15 14 14 15 15 12 16
13 13 20 19 19 18 18 18 18 17 17 17 17 16 16 15 15 14 14 13 13 13 13 13 13 13 13 13 13 14 14 14 14 14 15 14 15 14 14 15 14 10 15
15 13 17 19 19 18 18 17 17 17 17 16 16 15 15 15 14 14 14 13 13 13 13 13 14 14 13 13 13 13 13 13 14 14 13 9 11 13 14 15 15 14 14
15 12 14 20 19 18 18 17 17 17 16 16 15 15 14 14 14 14 13 13 13 13 14 14 14 13 13 13 12 12 12 13 14 13 7 7 8 12 13 14 14 14 14
13 11 14 21 20 19 18 17 16 16 16 16 15 14 14 14 13 13 13 13 13 13 13 13 13 13 12 12 11 11 11 12 13 10 7 6 6 12 13 13 13 13 14
12 10 14 21 20 19 18 17 16 16 15 15 14 14 14 13 13 13 13 13 13 13 13 13 13 12 11 10 10 10 11 12 10 7 7 7 6 11 13 13 13 13 13
12 9 12 20 19 19 18 17 16 16 15 14 14 13 13 13 13 13 12 12 12 12 12 12 12 11 10 9 9 10 11 12 8 7 6 6 6 10 12 12 12 12 12
13 10 11 19 19 18 18 17 16 15 15 14 13 13 13 12 12 12 12 11 11 11 11 11 10 10 9 8 8 9 11 11 9 7 6 5 8 10 11 11 11 11 11
11 10 9 10 14 17 17 17 16 15 14 14 13 12 12 12 11 11 10 11 10 10 10 9 9 9 8 7 8 9 10 11 7 6 6 5 8 10 11 11 11 11 11
8 8 8 8 8 8 10 16 16 15 14 13 13 12 12 12 11 10 9 9 9 9 9 8 8 7 7 6 7 9 10 10 6 6 4 5 9 10 10 10 10 10 10
9 6 7 7 7 7 7 12 13 14 13 12 10 12 10 4 4 5 7 8 8 8 7 7 6 6 6 6 7 9 8 4 5 4 4 7 9 9 10 10 10 10 10
12 9 7 8 8 7 8 6 5 5 6 5 4 5 4 4 3 5 5 7 7 7 7 6 6 6 5 3 4 6 3 5 4 3 4 8 9 9 9 9 9 9 9
12 11 9 8 8 7 4 5 3 3 3 4 5 5 4 3 2 2 1 2 3 4 3 4 4 3 3 2 2 2 3 3 2 2 4 8 8 9 9 8 8 8 9
12 11 9 9 8 7 5 4 4 3 3 3 4 5 4 3 2 2 1 2 2 2 2 3 2 3 3 3 2 3 3 2 2 2 2 7 7 8 8 8 8 8 8
11 11 10 9 8 7 6 5 5 4 4 4 3 4 5 4 3 3 2 2 2 2 2 2 2 2 2 2 1 2 2 2 2 2 1 5 7 7 7 8 8 8 8
11 10 9 9 8 7 5 4 4 4 4 4 3 4 5 4 4 3 3 2 2 2 2 2 3 2 1 1 2 1 1 1 1 1 1 2 4 5 6 7 7 8 8
11 9 9 9 8 7 6 6 4 4 4 4 3 4 4 4 4 4 3 2 2 2 3 2 3 2 2 2 2 1 1 0 1 1 1 1 1 3 5 6 7 7 8
9 9 9 10 9 8 6 5 4 4 4 4 4 4 5 5 5 4 3 3 2 2 2 3 2 2 2 2 1 1 1 1 1 0 1 1 0 1 2 5 6 6 7
9 10 10 9 9 8 6 5 4 4 4 3 4 4 4 5 5 4 3 3 4 3 2 2 2 2 2 1 1 1 2 1 1 1 0 0 1 1 1 2 4 4 6
10 9 9 8 8 7 5 4 3 3 3 3 3 4 6 5 5 4 3 4 4 3 2 2 3 2 2 1 2 2 2 2 2 2 1 1 0 1 1 1 1 1 3
9 9 9 9 8 7 6 6 5 4 3 3 3 5 6 6 6 5 4 4 4 3 3 4 3 3 2 1 2 2 3 3 3 2 2 1 1 1 0 0 0 0 0
10 10 9 9 8 8 6 5 4 4 3 2 2 4 5 6 6 5 5 4 4 4 4 3 3 3 2 2 2 3 2 3 3 3 3 2 2 2 2 1 1 0 0
9 9 9 9 8 7 7 5 5 4 3 2 2 3 4 5 6 5 6 5 5 4 4 3 3 4 3 2 2 3 3 2 1 2 3 3 3 2 2 2 2 1 1
9 8 7 8 7 7 8 9 9 6 5 4 3 3 4 5 5 6 6 6 5 4 4 3 3 3 4 2 2 2 2 3 3 1 2 3 3 3 3 2 2 2 1
9 8 7 8 7 7 8 9 8 6 4 3 4 5 4 3 4 5 6 5 5 4 4 4 4 3 3 3 3 2 2 2 2 2 1 2 2 2 3 2 1 1 1
7 8 8 8 7 8 8 8 8 9 8 7 6 5 4 3 3 4 5 5 4 4 4 4 4 4 3 3 3 2 3 2 2 2 2 0 1 2 2 2 2 1 1
Wind_Direction
158 159 150 144 138 133 128 124 122 120 119 119 119 119 119 118 116 115 114 112 111 108 105 103 102 102 104 104 104 106 107 109 111 112 113 112 112 111 111 110 108 108 111
149 156 152 147 142 137 132 129 126 124 123 122 121 121 120 120 118 117 115 113 111 108 106 106 105 104 104 105 106 107 109 110 111 113 112 111 111 111 113 111 110 113 114
145 153 151 149 144 140 136 133 130 128 126 124 124 123 123 123 121 119 116 114 111 108 107 106 106 105 105 107 109 110 111 111 111 110 107 105 110 112 113 114 115 114 115
146 149 152 151 148 144 140 137 134 132 130 127 126 127 126 126 124 121 118 116 113 111 110 108 108 107 108 110 111 110 111 111 111 108 100 106 112 116 115 115 117 118 117
145 148 157 153 151 147 144 141 138 135 133 132 131 131 130 128 126 123 121 118 115 114 113 111 110 110 110 113 113 114 115 115 111 104 98 98 105 119 118 117 118 120 119
144 149 160 155 153 150 148 145 142 139 137 136 135 134 133 131 129 127 123 119 117 115 113 112 111 110 110 113 116 118 119 117 110 104 102 106 112 122 121 120 119 120 119
147 153 161 157 156 154 152 149 147 144 142 140 138 138 136 134 131 129 126 122 119 115 113 112 111 108 107 111 117 123 123 121 116 112 110 112 119 124 124 122 122 123 122
151 153 159 161 160 158 156 154 152 149 147 145 143 142 140 138 135 130 129 125 120 117 115 112 108 103 100 104 114 123 126 128 124 122 118 121 130 128 127 125 123 123 124
150 153 157 161 162 162 160 158 156 154 152 150 149 147 145 143 140 137 133 130 124 120 116 112 106 99 95 99 113 124 129 131 124 129 132 130 136 133 132 130 128 127 128
148 154 154 156 155 156 161 161 159 158 156 155 154 153 152 149 146 143 137 134 129 124 119 113 106 98 91 95 115 127 129 125 127 130 129 145 145 142 139 136 134 132 132
160 159 154 155 153 151 158 168 162 161 161 160 159 160 151 132 130 138 144 143 137 132 124 115 107 98 88 90 116 131 121 121 130 130 137 154 153 151 147 145 143 141 140
170 168 162 159 157 152 165 159 150 152 151 143 139 139 119 117 132 141 161 152 146 138 124 112 100 87 75 67 94 113 113 129 134 142 158 163 162 160 156 154 153 151 149
171 170 166 163 158 155 151 147 140 130 131 133 136 129 125 121 125 119 113 126 115 112 84 84 77 69 70 71 80 95 118 126 140 154 171 171 170 170 167 166 165 164 162
169 171 166 164 159 159 149 149 141 135 139 144 145 140 136 134 130 125 111 99 88 83 90 81 80 74 70 69 89 109 126 128 138 143 179 179 179 181 179 178 178 179 176
173 171 169 168 164 161 151 157 153 148 151 152 148 151 149 148 150 142 130 119 113 106 111 106 93 88 81 65 74 114 127 133 140 143 169 187 188 191 189 190 192 194 191
178 174 168 168 164 157 155 160 155 153 152 152 157 163 157 152 151 147 136 133 130 130 124 118 112 104 87 74 62 77 125 142 152 153 162 201 203 202 202 203 206 206 204
176 172 170 167 160 162 163 166 159 159 156 159 162 164 161 155 151 146 143 145 150 137 123 105 97 86 81 72 57 49 72 108 156 160 166 172 214 226 219 219 218 215 216
167 169 173 177 167 167 164 162 157 158 157 160 159 159 160 156 154 149 151 152 147 131 123 119 103 91 78 76 62 25 22 21 38 178 178 181 187 252 248 244 232 222 225
169 171 172 168 166 169 163 156 155 150 156 162 153 154 155 157 156 151 153 147 141 129 125 130 98 107 108 97 90 49 25 28 19 25 69 211 221 237 255 270 254 233 232
169 171 171 163 164 161 152 142 139 141 150 146 151 156 152 152 152 147 143 140 137 129 125 120 113 88 93 98 82 58 27 22 38 35 29 36 44 236 247 264 284 260 247
167 169 170 165 166 162 161 162 164 166 160 154 162 156 151 148 150 147 140 136 139 140 147 142 121 102 75 79 88 51 19 24 37 26 25 35 26 8 53 45 47 36 313
172 172 169 167 169 169 167 161 150 140 141 146 149 148 151 150 154 154 146 147 143 132 132 137 130 118 85 70 114 102 48 5 5 18 22 36 31 43 48 63 84 126 24
173 175 174 170 168 165 155 135 124 106 97 115 139 145 151 152 152 146 150 146 145 144 151 153 147 135 125 71 74 136 143 189 321 354 15 29 31 43 32 32 41 32 29
180 176 166 166 166 163 157 157 156 158 159 174 160 145 139 145 146 146 149 145 143 141 144 152 142 133 132 130 85 58 98 141 136 62 356 9 26 39 24 22 34 38 45
170 165 162 159 160 161 158 159 159 153 145 134 131 132 131 135 144 148 146 142 141 139 142 138 134 131 131 143 145 131 97 73 86 128 115 351 9 14 17 9 17 31 34
163 160 160 159 162 161 159 160 162 157 150 145 146 149 145 137 138 145 142 140 142 140 143 141 136 135 133 130 133 138 145 142 143 133 138 124 350 339 347 357 10 11 14